Location: Shepherdstown, WV
(39.4326°N, 77.8042°W)
Time: 04:24:07
(UTC-04:00)

Vanguard 3 - Pass Details

Date: 10 August 2021
Orbit: 510 x 3260 km, 33.3° (Epoch: 21 September)

Event Time Altitude Azimuth Distance (km) Brightness Sun altitude
Rises 17:55:32 0° 257° (WSW) 4,438 12.2 25.2°
Reaches altitude 10° 17:58:00 10° 255° (WSW) 3,748 12.2 24.7°
Maximum altitude 18:08:23 68° 175° (S) 2,403 9.9 22.7°
Drops below altitude 10° 18:25:57 10° 98° (E) 5,991 11.0 19.3°
Sets 18:31:05 0° 96° (E) 7,166 11.3 18.3°
